Home   Weather   Billings   Past weeks

Flag for USA Past Weather in Billings, Montana, USA — Yesterday and Last 2 Weeks

Now
62 °F

Broken clouds.


Feels Like: 62 °F
Forecast: 41 / 65 °F
Wind: 7 mph from Northeast

Location: Billings Logan International Airport

Current Time: May 26, 2017 at 4:45:48 pm

Latest Report: May 26, 2017 at 3:53 pm


Visibility: 10 mi

Pressure: 29.90 "Hg (26.74 "Hg at 946m altitude)

Humidity: 32%

Dew Point: 32 °F

Location of BillingsLocation

Past Weather in Billings — Graph

°F

Billings Temperature Yesterday

Maximum temperature yesterday: 61 °F (at 2:53 pm)
Minimum temperature yesterday: 46 °F (at 5:53 am)
Average temperature yesterday: 52 °F

High & Low Weather Summary for the Past Weeks

 TemperatureHumidityPressure
High87 °F (May 12, 3:53 pm)97% (May 17, 10:53 am)30.22 "Hg (May 17, 10:53 am)
Low36 °F (May 19, 3:53 am)15% (May 12, 3:53 pm)29.20 "Hg (May 24, 12:53 pm)
Average55 °F56%29.84 "Hg
* Reported May 11 2:53 pm — May 26 2:53 pm, Billings. Weather by CustomWeather, © 2017

Note: Actual official high and low records may vary slightly from our data, if they occured in-between our weather recording intervals... More about our weather records

Advertising

Billings Weather History for the Previous 24 Hours

Scroll right to see more
 ConditionsComfort  
Time TempWeatherWind HumidityBarometerVisibility
2:53 pm
Fri, May 26
62 °FBroken clouds.5 mph32%29.90 "Hg10 mi
1:53 pm61 °FBroken clouds.No wind31%29.89 "Hg10 mi
12:53 pm60 °FBroken clouds.3 mph33%29.90 "Hg10 mi
11:53 am58 °FBroken clouds.6 mph38%29.91 "Hg10 mi
10:53 am56 °FScattered clouds.3 mph44%29.93 "Hg10 mi
8:53 am50 °FPassing clouds.7 mph59%29.93 "Hg10 mi
7:53 am45 °FScattered clouds.8 mph68%29.95 "Hg10 mi
6:53 am43 °FScattered clouds.6 mph68%29.93 "Hg10 mi
5:53 am42 °FPartly sunny.9 mph71%29.92 "Hg10 mi
4:53 am42 °FPartly cloudy.13 mph68%29.91 "Hg10 mi
3:53 am41 °FClear.8 mph70%29.90 "Hg10 mi
2:53 am42 °FPassing clouds.9 mph65%29.87 "Hg10 mi
1:53 am43 °FClear.12 mph68%29.87 "Hg10 mi
12:53 am44 °FClear.8 mph63%29.87 "Hg10 mi
11:53 pm
Thu, May 25
47 °FClear.9 mph54%29.87 "Hg10 mi
10:53 pm46 °FPassing clouds.8 mph58%29.87 "Hg10 mi
9:53 pm50 °FPassing clouds.12 mph48%29.85 "Hg10 mi
8:53 pm53 °FPassing clouds.13 mph45%29.81 "Hg10 mi
7:53 pm57 °FScattered clouds.14 mph36%29.78 "Hg10 mi
6:53 pm58 °FPartly sunny.18 mph33%29.75 "Hg10 mi
5:53 pm58 °FPartly sunny.20 mph35%29.75 "Hg10 mi
4:53 pm59 °FPartly sunny.17 mph36%29.72 "Hg10 mi
Weather by CustomWeather, © 2017

See weather overviewHow to use our weather pages